星链-31266 (STARLINK-31266 )

导读

STARLINK-31266是美国SpaceX星链互联网星座的一颗卫星,于2024年2月29日发射。星链计划旨在为全球提供覆盖偏远地区的高速卫星互联网服务,该卫星延续了星链星座低轨部署的设计,依托批量发射组网的模式,进一步扩充了星链星座的规模,助力提升星座全球覆盖密度与通信服务能力。

Basic Information
目录编号:
59087
目录名称:
STARLINK-31266
国际标识:
2024-041P
轨道中心:
EARTH
卫星名称:
星链-31266
卫星全名:
星链-31266 (STARLINK-31266 )
卫星状态:
在轨 (已飞行925 天)
发射日期:
2024-02-29 UTC
国别 :
美国 (US)
星等 :
--
This satellite is enrolled in the Space Conjunction Data Service (SCDS) and the current flight risk assessment level is: High Risk
Orbit Information
数据来源 国际轨道数据 AOE轨道数据
星历时间 2026-09-11T15:45:46+0800
10小时前
查看轨道信息
2026-09-10T12:00:00+0800
1天前
查看轨道信息
半长轴 6861.192km 6861.214km
偏心率 0.0001393 0.0001304
轨道倾角 43.003° 43.002°
近地点辐角 263.052° 258.287°
升交点赤经 342.186° 348.724°
平近点角 97.017° 212.804°
近地点 482.099km 482.182km
远地点 484.011km 483.972km
周期 94.267分钟 94.267分钟
每日圈数 15.275783 15.27571
Detailed Information
固有亮度:
5
最大亮度:
0.3
卫星平台:
Starlink v2.0 mini
覆盖范围:
全球
运营商:
太空探索技术公司
运营商所在国:
美国
制造商(研发单位):
太空探索技术公司
制造商所在国:
美国
使用方式:
暂无
Satellite Introduction
星链(Starlink)计划是由太空探索技术公司(SpaceX)提出的一个巨型低轨卫星互联网星座项目,计划在2019年至2024年间在太空搭建由约1.2万颗卫星组成的“星链”网络,其中1584颗将部署在地球上空550千米处的近地轨道,并从2020年开始工作。该卫星仍在工作。
2D Orbit Map
3D Orbit Map
Orbit Altitude Analysis Chart
Orbit Inclination Analysis Chart
Orbit Comprehensive Analysis Chart
View Comprehensive Chart
Conjunction Data List
Event ID Objects TCA Miss Dist (km) Collision Risk Probability Collision Risk Index (CRI) Action
CDM_260912-050305-908706-713022
2026-09-12T
05:03:30+0000
0.065 km
近距离
1.329867E-3 极高风险 0.97
CDM_260913-065701-312105-908724
SL-3 R/B (13121)
2026-09-13T
06:57:52+0000
0.174 km
中距离
8.614184E-4 高风险 0.94
CDM_260913-050305-908706-800321
2026-09-13T
05:03:19+0000
0.403 km
远距离
2.280888E-4 高风险 0.82
CDM_260911-211005-908706-215122
2026-09-11T
21:10:57+0000
0.586 km
远距离
1.096338E-4 高风险 0.76
CDM_260911-140905-908706-713022
2026-09-11T
14:09:03+0000
0.924 km
远距离
2.66714E-5 中风险 0.64
CDM_260913-182305-908706-800321
2026-09-13T
18:23:38+0000
0.993 km
远距离
1.784714E-5 中风险 0.6
CDM_260911-092405-908706-215122
2026-09-11T
09:24:48+0000
1.059 km
极远距离
1.69733E-5 中风险 0.6
CDM_260913-032905-908706-800321
2026-09-13T
03:29:10+0000
1.493 km
极远距离
4.44595E-6 低风险 0.48
CDM_260913-195705-908706-800321
2026-09-13T
19:57:47+0000
1.800 km
极远距离
2.539815E-6 低风险 0.43
CDM_260911-075005-908706-215122
2026-09-11T
07:50:39+0000
2.088 km
极远距离
2.027632E-6 低风险 0.41
Miss Distance Evolution Trend with All Objects
Collision Probability Evolution Trend with All Objects